Dewpoint
57 57 57 57 57 57 58 58 58 59 58 59 58 58 58 59 58 51 35 41 47 63 67 56 53 52 52 47 47 53 40 35 38 40 43 46 46 46 47 47 49 47 48 51 53
56 56 56 57 57 57 58 58 58 58 58 58 58 58 58 59 48 30 41 47 54 60 54 48 45 48 46 43 43 47 37 39 42 41 43 45 46 45 45 47 48 48 50 51 52
56 56 56 56 56 57 57 58 58 58 58 58 57 58 59 58 39 36 53 48 56 58 48 36 40 44 42 41 42 41 40 42 42 43 43 44 45 45 42 45 47 48 49 51 51
55 56 56 55 56 56 57 58 57 57 57 57 57 58 59 50 33 40 58 49 56 50 42 37 40 42 40 40 42 41 43 44 45 45 44 44 46 44 44 44 47 48 49 51 51
56 55 55 55 56 56 57 57 57 56 57 57 57 58 52 31 29 37 59 51 45 40 36 38 40 40 38 40 42 42 44 45 46 45 45 46 44 45 44 46 48 49 49 50 50
55 55 55 56 56 56 57 56 56 56 57 57 57 58 44 20 20 32 39 44 33 37 36 37 39 39 39 40 42 44 45 45 46 46 46 44 44 45 45 47 48 48 50 50 50
55 55 56 56 56 56 56 56 55 56 59 58 58 53 32 17 24 32 39 40 34 37 36 37 39 39 39 40 43 43 44 45 45 46 45 46 45 44 47 46 47 48 49 50 51
55 55 56 56 56 56 56 55 55 58 59 58 58 46 22 12 16 28 33 34 35 37 38 39 39 39 39 41 41 39 40 41 44 45 45 51 45 45 47 45 46 48 49 50 52
55 55 55 55 55 55 54 54 55 60 59 58 53 39 14 12 9 27 31 33 37 37 39 41 40 38 39 50 41 41 34 37 42 44 44 45 44 46 47 46 46 47 48 49 52
54 54 54 54 54 54 54 52 53 58 58 49 40 32 17 7 13 27 31 34 36 36 37 36 36 35 35 42 33 30 33 34 37 42 44 43 43 46 47 46 47 46 48 49 50
53 54 54 54 54 54 51 44 44 42 40 15 14 12 6 14 26 28 31 32 34 34 32 32 31 37 30 32 32 31 34 32 36 40 41 40 42 45 47 47 47 47 47 49 49
53 53 53 53 53 53 51 42 37 38 32 20 21 11 21 24 22 26 31 31 32 31 32 30 31 33 31 31 30 30 31 33 37 38 41 39 40 44 46 46 47 48 49 50 51
53 54 54 53 52 50 39 39 39 38 32 19 15 16 17 25 21 24 29 30 29 29 29 28 31 32 31 28 28 28 29 31 33 39 37 38 39 42 45 46 46 47 48 49 50
54 54 53 52 45 41 36 43 38 40 26 14 15 13 13 21 19 23 26 28 27 27 28 28 31 31 30 27 27 32 29 31 32 32 28 35 31 42 44 45 46 47 47 47 48
53 53 52 51 44 36 38 39 38 39 7 8 10 11 15 19 20 21 24 26 25 26 27 27 30 29 29 29 25 27 28 29 31 30 25 28 22 32 41 40 42 45 45 45 46
52 52 50 44 48 40 39 37 39 29 4 6 8 10 9 16 19 21 22 25 25 24 27 27 28 29 29 28 28 25 27 29 29 30 21 27 24 31 33 34 36 39 43 44 44
51 50 50 48 36 40 38 36 28 14 9 6 8 8 10 14 17 19 19 20 20 22 23 26 25 28 26 27 26 25 30 32 30 20 20 26 24 23 28 31 33 36 40 41 41
50 49 48 47 39 40 37 33 24 8 6 9 7 5 7 12 16 18 18 16 17 20 22 22 22 26 26 26 26 26 28 28 23 21 18 26 26 27 29 31 34 36 35 37 38
49 45 43 42 44 41 34 28 24 4 9 5 3 5 4 8 12 12 14 13 14 16 18 18 20 24 25 28 28 26 27 23 23 19 18 21 24 28 31 31 31 32 34 35 36
48 40 36 37 41 37 31 27 17 20 17 12 4 6 6 9 8 9 9 12 11 14 16 17 20 20 24 29 31 33 41 28 33 17 14 16 24 25 29 31 31 32 35 36 36
47 36 35 40 41 33 27 27 22 21 22 15 8 6 8 9 8 10 8 8 8 13 17 17 20 21 27 29 27 28 27 33 26 19 13 12 21 28 26 28 31 32 34 36 40
42 28 43 40 33 25 25 26 20 19 21 18 17 9 9 11 8 9 10 11 10 12 14 18 18 22 24 28 32 25 24 22 31 33 16 17 20 26 27 28 28 31 34 40 42
41 37 42 39 25 18 21 23 20 20 19 18 15 14 9 10 10 11 11 12 11 12 12 19 23 23 22 24 25 20 22 23 26 29 19 17 21 28 29 36 37 35 42 44 47
42 31 37 37 30 27 19 22 21 23 21 22 18 16 12 12 11 11 10 12 14 10 16 20 22 22 20 18 20 20 22 22 21 16 17 15 18 27 28 33 39 41 43 45 48
41 38 39 29 26 29 20 21 17 23 26 26 22 17 14 12 9 9 12 13 15 20 14 19 21 22 25 20 20 20 22 21 20 21 16 15 17 26 34 38 42 44 46 48 51
42 41 41 39 36 28 28 20 14 21 22 23 22 20 18 11 9 13 13 15 16 16 15 19 22 25 23 20 17 18 19 18 17 15 15 18 25 38 44 45 45 50 55 56 59
43 42 44 37 35 33 29 29 22 23 30 35 32 30 25 34 37 36 24 19 17 19 15 17 21 23 22 22 17 16 17 16 16 17 16 16 30 44 46 49 51 54 56 57 58
Wind_Speed
20 20 20 21 21 22 22 22 22 22 22 22 21 21 22 24 29 6 10 3 5 20 9 9 10 9 10 6 11 24 6 18 20 17 13 11 12 8 12 11 9 11 20 22 18
21 21 21 21 21 22 23 22 22 23 22 22 21 20 21 21 13 15 4 8 15 20 11 9 10 7 17 7 2 13 20 14 14 17 15 8 12 11 10 13 15 18 22 20 17
21 22 22 22 23 23 24 23 23 23 23 22 20 19 19 20 10 10 8 12 18 17 13 10 8 10 13 5 6 13 16 11 12 14 12 10 12 9 8 16 14 18 20 18 16
22 22 22 23 24 24 25 25 25 24 24 21 18 18 17 7 10 8 8 12 14 13 14 11 9 15 2 8 5 15 9 11 11 9 11 12 7 11 10 16 17 17 18 16 15
21 23 23 24 24 25 25 26 26 25 23 19 15 14 9 10 12 10 11 11 12 12 13 10 9 7 8 5 4 13 9 8 9 8 13 10 10 9 12 15 17 17 15 15 14
22 24 24 24 25 26 26 27 28 25 22 17 11 10 7 15 3 3 8 13 14 13 10 10 4 8 5 5 5 9 10 9 6 9 6 10 9 10 12 14 17 16 15 14 14
23 24 26 24 26 27 27 28 28 24 19 11 7 6 11 11 2 3 11 15 15 12 12 2 8 14 3 10 6 12 10 11 6 6 6 9 7 16 14 14 16 15 14 13 13
23 25 26 26 27 28 28 28 29 20 11 6 6 9 9 4 5 8 12 15 9 8 7 4 9 3 6 9 11 13 16 11 8 6 4 12 10 13 15 15 16 15 13 13 13
24 25 26 26 27 29 30 30 24 14 7 5 6 9 14 6 13 14 16 17 14 10 6 5 15 9 13 32 9 26 8 13 9 8 4 8 14 15 15 16 15 16 14 14 13
25 25 26 26 28 30 33 31 7 11 10 10 11 8 12 15 17 13 16 17 16 12 10 14 20 15 7 28 2 13 10 10 9 9 6 7 11 17 17 15 15 16 16 14 16
23 24 26 27 30 28 23 6 6 8 15 14 10 14 6 10 9 15 18 15 19 15 19 18 17 3 12 10 7 3 14 14 6 7 9 6 11 16 19 16 16 16 17 16 17
21 23 25 28 31 30 14 8 8 8 10 23 14 16 5 6 16 22 22 20 20 20 22 14 12 9 5 1 3 6 1 11 8 5 9 6 8 17 19 18 17 16 17 16 14
22 24 27 31 33 15 10 12 6 12 9 18 22 19 15 16 20 24 25 26 23 24 23 18 7 10 3 8 4 8 9 8 5 10 5 11 10 9 16 16 16 17 14 16 17
21 23 24 33 13 10 12 3 7 9 8 15 21 14 19 21 20 24 25 25 14 25 24 16 11 7 8 6 1 13 5 1 6 14 8 10 16 9 14 14 15 16 17 18 19
23 24 22 12 16 9 8 6 11 8 9 18 28 17 18 26 20 24 24 22 22 24 16 21 11 11 11 5 6 8 3 2 8 12 15 1 17 10 11 13 14 16 16 16 15
25 22 21 9 12 15 13 10 6 11 14 11 19 21 26 26 23 18 23 18 17 19 16 18 8 12 10 5 6 6 12 13 14 8 14 2 16 17 12 13 11 14 12 10 13
29 23 13 13 11 5 8 8 10 20 10 21 26 27 28 23 27 28 22 25 24 19 21 20 13 13 5 12 10 14 13 9 11 6 13 3 6 15 11 10 12 11 10 10 7
32 30 11 16 12 13 12 11 18 25 23 23 23 30 30 30 29 28 28 27 26 23 18 24 19 19 15 16 11 11 8 14 11 5 16 6 10 15 15 11 8 9 11 6 4
40 13 11 11 19 10 13 20 21 22 16 15 29 32 27 32 21 24 27 29 27 26 23 21 20 23 17 12 12 5 9 15 10 8 11 14 16 14 13 13 12 11 9 8 8
11 11 17 13 14 15 17 27 27 8 4 12 25 27 31 35 26 27 26 28 27 29 28 13 14 20 14 7 11 6 29 4 16 3 13 8 18 15 13 11 9 10 10 9 11
8 8 15 13 13 16 22 31 14 6 5 13 23 27 29 32 26 26 23 19 29 25 23 13 19 14 14 14 15 13 13 14 9 6 8 13 13 11 5 4 12 11 8 12 12
10 13 11 17 18 22 26 29 3 11 11 12 11 24 27 27 27 23 22 13 24 26 25 20 15 23 18 19 11 11 11 9 8 13 4 15 16 11 8 7 2 5 6 5 8
7 4 12 16 19 22 28 31 9 11 13 11 11 11 22 25 23 19 18 21 21 22 28 23 14 19 20 10 12 10 13 12 11 23 3 6 15 16 12 10 4 7 7 4 5
7 8 9 16 23 12 25 14 18 9 3 4 5 10 11 16 22 22 19 13 13 25 24 21 24 17 20 17 20 18 13 9 12 6 13 10 16 17 9 8 6 6 5 7 3
8 5 4 18 20 17 20 18 22 14 10 9 9 16 17 15 21 18 20 17 13 13 24 25 24 14 8 4 6 14 12 10 13 2 4 19 14 18 8 7 7 10 9 9 8
8 6 7 12 3 18 11 15 22 17 14 13 10 10 10 21 21 18 21 16 21 20 24 28 23 18 14 11 7 9 14 12 9 1 7 4 12 15 10 9 10 12 14 15 15
9 10 8 6 12 15 14 11 17 12 9 8 4 6 17 9 12 13 2 10 23 22 25 28 25 18 17 12 12 14 12 9 8 6 6 8 11 16 16 13 13 14 15 15 14
Wind_Direction
352 350 347 345 342 337 333 331 328 326 325 323 325 325 323 323 312 223 255 89 164 173 205 185 219 231 236 240 263 103 351 46 47 70 97 118 106 74 113 110 69 78 123 123 140
350 347 344 341 339 334 329 328 324 321 320 320 321 321 321 324 298 261 144 125 152 175 202 217 217 214 248 204 342 17 61 69 19 71 99 99 90 127 118 111 101 98 110 129 142
346 344 342 340 338 331 327 324 321 319 317 316 318 317 319 318 273 228 160 151 176 191 259 294 276 246 260 346 43 34 69 57 59 71 98 114 117 159 137 114 128 129 133 140 148
343 340 339 337 334 329 325 322 320 316 313 312 312 313 315 272 215 92 131 160 185 218 262 265 243 248 341 69 78 96 71 77 89 101 106 89 126 113 47 112 125 134 139 144 154
340 336 335 333 330 327 325 321 318 314 308 305 305 312 300 229 254 135 138 165 193 229 253 297 264 291 38 74 82 96 93 98 101 106 91 125 98 107 110 125 133 133 144 149 147
336 333 332 330 328 324 324 321 317 313 305 296 290 297 251 242 65 149 211 176 218 225 248 266 357 333 91 64 42 98 101 103 126 101 121 108 113 130 126 140 136 147 151 155 139
334 333 328 328 326 323 324 321 317 311 303 284 261 259 257 239 339 235 215 202 211 230 260 309 322 275 174 115 131 142 124 133 120 135 144 125 142 106 142 147 147 161 160 142 147
334 332 328 328 326 323 321 318 314 308 308 252 228 242 252 183 261 227 210 198 205 227 278 301 267 265 291 126 161 160 179 148 140 172 164 114 122 129 150 155 162 163 160 162 145
334 332 329 327 326 323 318 312 302 298 285 207 226 229 242 122 213 209 200 196 198 207 234 282 267 270 205 26 286 131 134 113 144 204 141 246 121 150 163 163 168 170 173 173 169
332 330 326 326 324 320 319 301 278 284 229 233 268 245 241 215 194 181 199 214 199 204 214 242 242 231 207 151 47 89 142 113 98 154 194 184 113 160 169 175 170 178 176 183 172
333 330 326 325 320 318 330 261 225 208 221 218 198 228 136 149 132 191 183 202 204 212 225 212 253 227 48 43 68 341 32 81 102 132 215 164 165 165 177 183 172 185 179 194 188
334 326 323 320 315 312 294 272 36 336 282 226 247 247 293 218 190 195 182 199 200 213 233 223 217 156 81 14 264 254 211 79 97 142 229 130 172 153 186 191 182 196 178 191 199
327 326 324 320 314 296 270 290 341 326 256 224 214 228 213 210 205 183 188 202 201 215 223 244 61 103 259 200 333 360 48 54 38 151 201 155 117 147 176 195 198 198 204 194 198
326 325 325 325 301 335 272 89 305 303 259 198 202 223 210 197 214 183 199 201 206 216 228 233 142 158 216 251 246 255 74 204 303 176 128 225 105 143 176 195 202 213 214 209 203
326 324 321 319 309 273 31 318 326 249 231 180 185 196 180 199 183 182 189 204 216 214 217 221 145 183 246 28 307 101 250 254 225 155 152 207 104 117 158 195 199 210 220 213 218
320 318 324 273 220 259 306 299 269 228 219 158 149 180 180 199 182 166 190 218 229 211 225 242 194 199 246 127 245 256 236 215 206 226 94 156 129 157 161 149 172 177 198 219 213
312 305 287 295 232 15 298 254 215 220 166 163 172 183 185 187 198 172 187 202 208 210 204 231 190 212 242 222 204 239 192 266 9 149 82 110 97 98 109 96 129 145 170 178 188
311 304 248 223 250 247 252 216 235 209 187 157 179 180 193 187 197 179 191 199 213 212 193 204 209 204 192 252 289 243 299 252 168 125 127 146 101 109 111 123 110 118 126 128 201
312 260 227 232 222 240 230 214 221 195 194 184 182 182 193 186 189 193 202 207 197 217 227 197 228 189 200 202 250 271 260 0 17 175 142 113 114 122 136 151 163 135 133 137 107
307 273 240 183 171 202 219 231 223 8 124 231 188 187 189 182 201 192 196 205 202 212 228 194 201 173 176 225 236 43 272 57 202 120 116 106 119 107 136 136 124 143 142 123 114
260 230 131 165 183 214 212 227 236 168 211 234 215 189 194 181 198 191 188 194 206 190 232 248 204 172 168 213 203 199 234 175 243 344 144 172 100 115 105 82 141 140 132 127 128
275 235 149 167 196 209 214 228 125 183 200 249 276 218 201 180 193 185 190 191 200 184 204 234 225 167 197 209 246 289 231 213 91 308 6 89 112 109 111 87 82 63 127 109 141
258 244 168 199 220 196 220 235 181 212 197 199 221 250 202 188 189 196 206 196 191 193 196 215 241 162 193 176 203 249 256 241 201 197 120 302 119 115 120 114 82 86 113 155 181
270 215 159 211 250 267 211 218 198 246 155 230 240 212 227 231 189 204 198 152 181 204 195 225 236 193 183 200 193 210 219 251 271 167 137 88 134 133 130 110 103 95 97 121 190
244 272 31 198 215 233 226 201 207 177 232 202 198 207 199 204 193 194 206 166 186 188 178 217 233 239 110 117 158 169 197 197 262 10 349 130 146 111 99 93 84 94 95 103 101
305 336 307 306 210 213 238 226 202 197 176 184 230 191 232 213 204 195 197 165 186 180 192 209 227 244 215 164 211 250 179 188 218 341 291 353 101 98 113 132 110 99 92 86 78
7 283 271 212 220 216 208 209 218 186 199 335 57 195 210 46 16 336 33 192 179 181 197 201 219 218 218 213 195 235 223 196 202 222 258 218 127 124 123 114 104 98 93 89 85